TimeCST,TemperatureF,Dew PointF,Humidity,Sea Level PressureIn,VisibilityMPH,Wind Direction,Wind SpeedMPH,Gust SpeedMPH,PrecipitationIn,Events,Conditions,WindDirDegrees,DateUTC
12:41 AM,8.6,6.8,92,30.16,2.5,South,6.9,-,N/A,,Overcast,180,2013-01-01 06:41:00
12:53 AM,8.1,7.0,95,30.28,1.8,South,6.9,-,N/A,,Overcast,180,2013-01-01 06:53:00
1:04 AM,8.6,6.8,92,30.16,1.2,South,8.1,-,N/A,,Overcast,170,2013-01-01 07:04:00
1:13 AM,8.6,6.8,92,30.16,1.8,South,8.1,-,N/A,,Overcast,180,2013-01-01 07:13:00
1:25 AM,8.6,8.6,100,30.16,2.0,South,9.2,-,N/A,,Overcast,180,2013-01-01 07:25:00
1:48 AM,8.6,8.6,100,30.16,3.0,South,5.8,-,N/A,,Overcast,180,2013-01-01 07:48:00
1:53 AM,9.0,8.1,96,30.27,4.0,South,5.8,-,N/A,,Overcast,170,2013-01-01 07:53:00
2:53 AM,10.0,8.1,92,30.27,8.0,South,6.9,-,N/A,,Overcast,170,2013-01-01 08:53:00
3:31 AM,10.4,8.6,92,30.15,10.0,South,8.1,-,N/A,,Overcast,170,2013-01-01 09:31:00
3:53 AM,10.9,8.1,88,30.27,10.0,South,9.2,-,N/A,,Overcast,180,2013-01-01 09:53:00
4:53 AM,12.0,9.0,88,30.25,10.0,South,8.1,-,N/A,,Overcast,180,2013-01-01 10:53:00
5:12 AM,12.2,10.4,92,30.13,10.0,South,6.9,-,N/A,,Overcast,190,2013-01-01 11:12:00
5:53 AM,14.0,10.9,88,30.24,10.0,South,5.8,-,N/A,,Overcast,190,2013-01-01 11:53:00
6:53 AM,16.0,12.9,88,30.23,10.0,South,3.5,-,N/A,,Overcast,190,2013-01-01 12:53:00
7:00 AM,15.8,14.0,93,30.12,10.0,South,3.5,-,N/A,,Overcast,190,2013-01-01 13:00:00
7:43 AM,17.6,15.8,93,30.11,10.0,SW,9.2,-,N/A,,Overcast,230,2013-01-01 13:43:00
7:53 AM,18.0,16.0,92,30.23,10.0,WSW,11.5,-,N/A,,Overcast,240,2013-01-01 13:53:00
8:53 AM,18.0,16.0,92,30.23,10.0,SW,13.8,-,N/A,,Overcast,230,2013-01-01 14:53:00
9:19 AM,19.4,15.8,86,30.12,10.0,SW,10.4,-,N/A,,Overcast,230,2013-01-01 15:19:00
9:53 AM,19.0,17.1,92,30.23,10.0,SW,9.2,-,N/A,,Overcast,230,2013-01-01 15:53:00
10:53 AM,18.0,17.1,96,30.22,6.0,SSW,9.2,-,N/A,,Overcast,200,2013-01-01 16:53:00
11:18 AM,17.6,17.6,100,30.10,3.0,SSW,10.4,-,N/A,,Overcast,200,2013-01-01 17:18:00
11:32 AM,19.4,17.6,93,30.09,2.5,SSW,9.2,-,N/A,,Overcast,200,2013-01-01 17:32:00
11:53 AM,18.0,17.1,96,30.19,2.0,SSW,12.7,-,N/A,,Overcast,200,2013-01-01 17:53:00
12:15 PM,19.4,17.6,93,30.07,4.0,SSW,15.0,-,N/A,,Overcast,210,2013-01-01 18:15:00
12:53 PM,19.0,17.1,92,30.16,6.0,SW,11.5,-,N/A,,Overcast,220,2013-01-01 18:53:00
1:39 PM,19.4,17.6,93,30.04,9.0,SW,16.1,-,N/A,,Overcast,230,2013-01-01 19:39:00
1:53 PM,19.9,18.0,92,30.13,6.0,SW,12.7,-,N/A,,Overcast,230,2013-01-01 19:53:00
2:04 PM,19.4,17.6,93,30.03,5.0,SW,15.0,-,N/A,,Overcast,230,2013-01-01 20:04:00
2:32 PM,19.4,19.4,100,30.03,3.0,SW,15.0,-,N/A,,Overcast,220,2013-01-01 20:32:00
2:53 PM,19.9,18.0,92,30.13,8.0,WSW,13.8,-,N/A,,Overcast,240,2013-01-01 20:53:00
3:53 PM,19.9,18.0,92,30.10,10.0,SW,15.0,-,N/A,,Overcast,220,2013-01-01 21:53:00
4:53 PM,19.9,18.0,92,30.10,6.0,SW,12.7,-,N/A,,Overcast,220,2013-01-01 22:53:00
5:53 PM,19.0,18.0,96,30.08,7.0,SW,12.7,-,N/A,,Overcast,220,2013-01-01 23:53:00
6:53 PM,18.0,16.0,92,30.07,10.0,SSW,13.8,-,N/A,,Overcast,210,2013-01-02 00:53:00
7:26 PM,14.0,12.2,93,29.97,10.0,SSW,10.4,-,N/A,,Scattered Clouds,210,2013-01-02 01:26:00
7:53 PM,10.9,10.0,96,30.06,10.0,SSW,9.2,-,N/A,,Clear,210,2013-01-02 01:53:00
8:53 PM,9.0,7.0,92,30.05,10.0,SSW,10.4,-,N/A,,Clear,210,2013-01-02 02:53:00
9:53 PM,7.0,5.0,92,30.04,10.0,SSW,8.1,-,N/A,,Clear,210,2013-01-02 03:53:00
10:53 PM,5.0,3.0,92,30.04,10.0,South,5.8,-,N/A,,Clear,190,2013-01-02 04:53:00
11:53 PM,5.0,3.9,95,30.02,10.0,Calm,Calm,-,N/A,,Clear,0,2013-01-02 05:53:00